DM5RC Weather Reports


Display with metric or nautical units.
time (UTC)temp
F
wind
direction
speed
MPH
gust
MPH
rain 1hr
in
rain 24hr
in
rain mn
in
humidity
%
barometer
mb
20260505174836 64 46 4.0 8.0 0.00 0.20 0.04 81 1006.2
20260505174320 64 58 4.0 8.0 0.00 0.20 0.04 81 1006.1
20260505173825 64 33 5.0 8.0 0.00 0.20 0.04 80 1006.1
20260505173328 65 53 2.0 8.0 0.00 0.20 0.04 80 1006.1
20260505172825 65 46 2.0 8.0 0.00 0.20 0.04 80 1006.1
20260505172330 65 33 2.0 9.0 0.00 0.20 0.04 79 1006.1
20260505171814 65 51 2.0 9.0 0.00 0.20 0.04 79 1006.1
20260505171317 65 36 2.0 4.0 0.00 0.20 0.04 79 1006.1
20260505170841 65 22 2.0 5.0 0.00 0.20 0.04 80 1006.2
20260505170324 65 51 2.0 5.0 0.00 0.20 0.04 79 1006.2
20260505165825 66 65 2.0 5.0 0.00 0.20 0.04 79 1006.2
20260505165324 66 20 3.0 8.0 0.00 0.20 0.04 79 1006.1
20260505164825 66 52 4.0 8.0 0.00 0.20 0.04 78 1006.1
20260505164324 65 6 4.0 6.0 0.00 0.20 0.04 78 1006.3
20260505163825 65 68 3.0 7.0 0.00 0.20 0.04 79 1006.4
20260505163324 65 3 4.0 8.0 0.00 0.20 0.04 79 1006.4
20260505162824 65 51 3.0 8.0 0.00 0.20 0.04 80 1006.4
20260505162324 65 46 4.0 8.0 0.00 0.20 0.04 79 1006.4
20260505161845 65 44 4.0 9.0 0.00 0.20 0.04 79 1006.5
20260505161325 65 45 5.0 9.0 0.00 0.20 0.04 80 1006.5
20260505160828 65 82 3.0 8.0 0.00 0.20 0.04 80 1006.5
20260505160351 65 58 4.0 7.0 0.00 0.20 0.04 80 1006.5
20260505153323 66 46 5.0 7.0 0.00 0.20 0.04 78 1006.7
20260505152826 66 45 4.0 7.0 0.00 0.20 0.04 78 1006.8
20260505152348 66 24 2.0 6.0 0.00 0.20 0.04 79 1006.8
20260505151830 65 27 3.0 7.0 0.00 0.20 0.04 80 1006.8
20260505151313 65 26 3.0 7.0 0.00 0.20 0.04 79 1006.8
20260505150816 65 18 4.0 8.0 0.00 0.20 0.04 78 1006.8
20260505150340 65 32 4.0 8.0 0.00 0.20 0.04 80 1006.8
20260505140319 65 23 2.0 11.0 0.00 0.20 0.04 78 1007.2
20260505124842 65 21 5.0 9.0 0.00 0.20 0.04 80 1007.6
20260505124344 65 319 5.0 9.0 0.00 0.20 0.04 79 1007.7
20260505123844 65 340 4.0 9.0 0.00 0.20 0.04 81 1007.6
20260505123326 65 319 4.0 8.0 0.00 0.20 0.04 83 1007.6
20260505122332 64 337 5.0 11.0 0.00 0.20 0.04 83 1007.8
20260505121816 64 18 4.0 11.0 0.00 0.20 0.04 83 1007.8
20260505121319 64 29 3.0 10.0 0.00 0.20 0.04 84 1007.8
20260505120822 64 25 4.0 9.0 0.00 0.20 0.04 83 1007.8
20260505120343 64 343 4.0 9.0 0.00 0.20 0.04 82 1007.9
20260505115824 65 359 3.0 8.0 0.00 0.20 0.04 82 1008.0
20260505115328 65 46 4.0 8.0 0.00 0.20 0.04 81 1007.9
20260505114814 65 35 5.0 8.0 0.00 0.20 0.04 80 1008.0
20260505114313 65 47 3.0 10.0 0.00 0.20 0.04 83 1007.9
20260505113814 64 32 5.0 10.0 0.00 0.20 0.04 82 1007.9
20260505113315 64 355 3.0 8.0 0.00 0.20 0.04 85 1007.9
20260505112838 64 354 5.0 8.0 0.00 0.20 0.04 84 1008.0
20260505112320 64 23 3.0 9.0 0.00 0.20 0.04 86 1008.0
20260505111822 64 2 4.0 8.0 0.00 0.20 0.04 88 1008.0
20260505111322 64 20 4.0 6.0 0.00 0.20 0.04 88 1008.0
20260505110823 63 345 4.0 9.0 0.00 0.20 0.04 89 1008.1
20260505110327 63 23 5.0 9.0 0.00 0.20 0.04 89 1008.1
20260505101826 62 4 3.0 6.0 0.00 0.20 0.04 92 1008.3
20260505101327 62 340 2.0 4.0 0.00 0.20 0.04 91 1008.2
20260505100827 62 57 2.0 4.0 0.00 0.20 0.04 91 1008.1
20260505100327 62 25 1.0 3.0 0.00 0.20 0.04 91 1008.2
20260505095850 61 27 0.0 4.0 0.00 0.20 0.04 91 1008.3
20260505095331 61 19 1.0 4.0 0.00 0.20 0.04 91 1008.3
20260505094831 61 65 1.0 3.0 0.04 0.20 0.04 91 1008.4
20260505094352 61 48 2.0 4.0 0.04 0.20 0.04 91 1008.4
20260505093831 61 49 3.0 4.0 0.04 0.20 0.04 90 1008.6
20260505093330 61 8 0.0 2.0 0.04 0.20 0.04 91 1008.7
20260505092825 61 7 1.0 4.0 0.04 0.20 0.04 92 1008.5
20260505092345 61 7 1.0 4.0 0.04 0.20 0.04 91 1008.5
20260505091826 61 14 2.0 6.0 0.08 0.20 0.04 92 1008.5
20260505091325 61 353 2.0 6.0 0.12 0.20 0.04 92 1008.5
20260505090847 61 42 3.0 6.0 0.12 0.20 0.04 92 1008.6
20260505090329 61 354 2.0 6.0 0.12 0.20 0.04 92 1008.5
20260505085851 60 33 1.0 6.0 0.12 0.20 0.04 92 1008.6
20260505085313 60 23 4.0 6.0 0.12 0.20 0.04 92 1008.5
20260505084814 60 37 2.0 3.0 0.12 0.16 0.03 91 1008.3
20260505084315 60 4 2.0 3.0 0.12 0.16 0.03 91 1008.4
20260505083816 60 20 2.0 3.0 0.12 0.16 0.03 90 1008.5
20260505083318 60 37 1.0 3.0 0.12 0.16 0.03 90 1008.5
20260505082838 60 31 1.0 2.0 0.12 0.16 0.03 90 1008.5
20260505082320 60 60 1.0 2.0 0.12 0.16 0.03 90 1008.5
20260505081823 60 98 1.0 2.0 0.08 0.12 0.02 89 1008.6
20260505081325 60 116 1.0 2.0 0.08 0.08 0.02 88 1008.6
20260505080828 60 131 1.0 2.0 0.08 0.08 0.02 87 1008.6
20260505080329 61 131 0.0 0.0 0.08 0.08 0.02 88 1008.8
20260505075831 61 131 0.0 2.0 0.08 0.08 0.02 88 1008.9
20260505075333 61 131 0.0 2.0 0.08 0.08 0.02 87 1008.8
20260505074851 61 118 0.0 2.0 0.04 0.04 0.01 87 1008.8
20260505074353 61 123 0.0 2.0 0.04 0.04 0.01 87 1008.9
20260505073834 61 60 0.0 1.0 0.04 0.04 0.01 87 1008.9
20260505073332 61 60 0.0 2.0 0.04 0.04 0.01 88 1008.8
20260505072830 61 60 1.0 2.0 0.04 0.04 0.01 88 1008.8
20260505072329 61 60 0.0 3.0 0.04 0.04 0.01 87 1008.8
20260505071830 61 59 1.0 3.0 0.04 0.04 0.01 87 1008.7
20260505071329 61 59 1.0 3.0 0.00 0.00 0.00 86 1008.8
20260505070852 61 65 1.0 3.0 0.00 0.00 0.00 85 1008.8
20260505070318 61 63 1.0 3.0 0.00 0.00 0.00 85 1008.8
20260505065842 61 63 0.0 2.0 0.00 0.00 0.00 85 1008.8
20260505065324 61 63 0.0 2.0 0.00 0.00 0.00 85 1008.9
20260505064827 61 63 0.0 2.0 0.00 0.00 0.00 85 1008.9
20260505064331 61 63 1.0 2.0 0.00 0.00 0.00 85 1008.8
20260505063830 61 63 0.0 2.0 0.00 0.00 0.00 85 1008.9
20260505063332 61 63 0.0 2.0 0.00 0.00 0.00 84 1008.9
20260505062831 61 63 1.0 3.0 0.00 0.00 0.00 84 1008.9
20260505062331 61 63 2.0 4.0 0.00 0.00 0.00 84 1008.8
20260505061339 61 63 1.0 5.0 0.00 0.00 0.00 83 1008.8
20260505060818 61 6 3.0 5.0 0.00 0.00 0.00 83 1008.8
20260505060321 61 20 2.0 3.0 0.00 0.00 0.00 83 1008.7
20260505055823 60 44 2.0 4.0 0.00 0.00 0.00 84 1008.7
20260505055326 60 45 2.0 4.0 0.00 0.00 0.00 84 1008.7
20260505054842 60 52 2.0 4.0 0.00 0.00 0.00 83 1008.6
20260505054324 60 26 1.0 2.0 0.00 0.00 0.00 84 1008.6
20260505053827 60 44 1.0 3.0 0.00 0.00 0.00 84 1008.6
20260505053330 60 42 2.0 7.0 0.00 0.00 0.00 84 1008.5
20260505052814 60 49 3.0 7.0 0.00 0.00 0.00 84 1008.5
20260505052338 60 36 5.0 8.0 0.00 0.00 0.00 84 1008.5
20260505051819 59 58 3.0 6.0 0.00 0.00 0.00 84 1008.5
20260505051340 59 31 3.0 7.0 0.00 0.00 0.00 84 1008.6
20260505050822 59 67 2.0 7.0 0.00 0.00 0.00 85 1008.7
20260505050324 59 57 3.0 7.0 0.00 0.00 0.00 85 1008.7
20260505041314 59 27 1.0 3.0 0.00 0.00 0.00 85 1009.0
20260505040904 59 6 1.0 5.0 0.00 0.00 0.00 85 1009.0
20260505040328 59 16 2.0 7.0 0.00 0.00 0.00 84 1009.0
20260505035830 59 34 4.0 7.0 0.00 0.00 0.00 84 1009.0
20260505035331 59 57 2.0 5.0 0.00 0.00 0.00 84 1009.0
20260505034813 59 40 2.0 6.0 0.00 0.00 0.00 84 1008.9
20260505034326 59 56 3.0 6.0 0.00 0.00 0.00 84 1008.9
20260505033827 59 41 3.0 6.0 0.00 0.00 0.00 83 1008.9
20260505033328 59 70 3.0 4.0 0.00 0.00 0.00 83 1008.9
20260505032829 60 33 3.0 5.0 0.00 0.00 0.00 83 1008.9
20260505032329 60 60 3.0 5.0 0.00 0.00 0.00 83 1009.0
20260505031822 60 46 2.0 3.0 0.00 0.00 0.00 83 1009.2
20260505031323 60 44 1.0 3.0 0.00 0.00 0.00 83 1009.4
20260505030843 60 62 1.0 3.0 0.00 0.00 0.00 83 1009.4
20260505030344 60 62 1.0 3.0 0.00 0.00 0.00 83 1009.5
20260505025826 60 62 1.0 3.0 0.00 0.00 0.00 83 1009.5
20260505025348 60 65 2.0 4.0 0.00 0.00 0.00 83 1009.4
20260505024830 60 65 2.0 5.0 0.00 0.00 0.00 83 1009.4
20260505024313 60 50 3.0 5.0 0.00 0.00 0.00 82 1009.3
20260505023815 60 59 3.0 6.0 0.00 0.00 0.00 82 1009.3
20260505023318 60 53 3.0 6.0 0.00 0.00 0.00 82 1009.4
20260505022819 60 58 3.0 5.0 0.00 0.00 0.00 82 1009.4
20260505022341 60 61 2.0 3.0 0.00 0.00 0.00 83 1009.5
20260505021822 60 80 0.0 2.0 0.00 0.00 0.00 82 1009.5
20260505021324 60 80 0.0 2.0 0.00 0.00 0.00 83 1009.5
20260505020847 60 80 1.0 3.0 0.00 0.00 0.00 83 1009.6
20260505020346 60 80 1.0 3.0 0.00 0.00 0.00 83 1009.6
20260505015825 59 122 1.0 3.0 0.00 0.00 0.00 84 1009.6
20260505015328 59 20 0.0 1.0 0.00 0.00 0.00 85 1009.6
20260505014829 59 20 0.0 0.0 0.00 0.00 0.00 85 1009.7
20260505014312 59 20 0.0 0.0 0.00 0.00 0.00 85 1009.6
20260505013836 59 20 0.0 2.0 0.00 0.00 0.00 85 1009.7
20260505013338 59 20 0.0 3.0 0.00 0.00 0.00 85 1009.7
20260505012818 59 13 1.0 2.0 0.00 0.00 0.00 85 1009.7
20260505012321 59 2 0.0 3.0 0.00 0.00 0.00 84 1009.7
20260505011823 59 1 1.0 3.0 0.00 0.00 0.00 84 1009.7
20260505011325 59 16 1.0 2.0 0.00 0.00 0.00 85 1009.7
20260505010826 59 22 0.0 0.0 0.00 0.00 0.00 85 1009.9
20260505010325 59 22 0.0 0.0 0.00 0.00 0.00 85 1010.1
20260505005826 59 22 0.0 1.0 0.00 0.00 0.00 85 1010.1
20260505005326 59 22 0.0 2.0 0.00 0.00 0.00 85 1010.1
20260505004847 59 22 0.0 0.0 0.00 0.00 0.00 85 1010.2
20260505004326 60 22 0.0 0.0 0.00 0.00 0.00 85 1010.2
20260505003826 59 22 0.0 0.0 0.00 0.00 0.00 85 1010.2
20260505003327 59 22 0.0 0.0 0.00 0.00 0.00 84 1010.2
20260505002830 60 22 0.0 0.0 0.00 0.00 0.00 84 1010.2
20260505002331 60 22 0.0 0.0 0.00 0.00 0.00 84 1010.3
20260505001813 60 22 0.0 0.0 0.00 0.00 0.00 83 1010.3
20260505001313 60 22 0.0 0.0 0.00 0.00 0.00 83 1010.3
20260505000813 61 22 0.0 1.0 0.00 0.00 0.00 83 1010.4
20260505000314 61 22 0.0 1.0 0.00 0.00 0.00 83 1010.5
20260504235833 61 22 0.0 1.0 0.00 0.00 0.00 83 1010.4
20260504235332 61 22 0.0 1.0 0.00 0.00 0.00 83 1010.5
20260504234813 61 22 0.0 3.0 0.00 0.00 0.00 83 1010.4
20260504234315 61 22 0.0 3.0 0.00 0.00 0.00 83 1010.3
20260504233321 61 20 2.0 3.0 0.00 0.00 0.00 81 1010.4
20260504232821 61 65 2.0 3.0 0.00 0.00 0.00 79 1010.5
20260504232323 60 68 2.0 3.0 0.00 0.00 0.00 80 1010.5
20260504231824 60 358 2.0 3.0 0.00 0.00 0.00 82 1010.6
20260504231327 60 241 0.0 2.0 0.00 0.00 0.00 81 1010.5
20260504230850 60 222 0.0 2.0 0.00 0.00 0.00 81 1010.7
20260504230323 60 222 0.0 3.0 0.00 0.00 0.00 81 1010.7
20260504225825 60 223 2.0 3.0 0.00 0.00 0.00 82 1010.8
20260504224819 61 141 0.0 1.0 0.00 0.00 0.00 82 1010.8
20260504224344 61 141 1.0 2.0 0.00 0.00 0.00 81 1010.7
20260504223825 61 148 1.0 2.0 0.00 0.00 0.00 81 1010.6
20260504223327 61 308 0.0 1.0 0.00 0.00 0.00 81 1010.6
20260504222829 61 308 0.0 0.0 0.00 0.00 0.00 80 1010.7
20260504222333 61 308 0.0 0.0 0.00 0.00 0.00 79 1010.8
20260504221813 61 308 0.0 0.0 0.00 0.00 0.00 78 1010.8
20260504220823 61 307 0.0 0.0 0.00 0.00 0.00 78 1010.9
20260504220325 61 308 0.0 0.0 0.00 0.00 0.00 78 1010.8
20260504215826 61 308 0.0 0.0 0.00 0.00 0.00 78 1010.9
20260504215326 61 308 0.0 0.0 0.00 0.00 0.00 77 1011.0
20260504214826 61 308 0.0 0.0 0.00 0.00 0.00 77 1010.9
20260504214326 61 308 0.0 0.0 0.00 0.00 0.00 77 1010.9
20260504213828 61 308 0.0 0.0 0.00 0.00 0.00 76 1011.0
20260504213330 62 308 0.0 0.0 0.00 0.00 0.00 77 1010.9
20260504212813 61 308 0.0 0.0 0.00 0.00 0.00 77 1010.9
20260504212316 61 308 0.0 1.0 0.00 0.00 0.00 76 1011.0
20260504211818 61 308 0.0 1.0 0.00 0.00 0.00 75 1010.9
20260504211322 61 308 0.0 0.0 0.00 0.00 0.00 76 1011.0
20260504210824 61 308 0.0 0.0 0.00 0.00 0.00 75 1011.0
20260504210328 61 308 0.0 0.0 0.00 0.00 0.00 75 1011.0
20260504205828 61 307 0.0 0.0 0.00 0.00 0.00 74 1011.0
20260504205329 61 308 0.0 0.0 0.00 0.00 0.00 74 1011.0
20260504204829 62 308 0.0 0.0 0.00 0.00 0.00 74 1011.0
20260504204330 62 308 0.0 0.0 0.00 0.00 0.00 74 1011.0
20260504203812 62 308 0.0 0.0 0.00 0.00 0.00 73 1011.0
20260504203315 62 308 0.0 0.0 0.00 0.00 0.00 73 1011.0
20260504202816 63 308 0.0 0.0 0.00 0.00 0.00 73 1011.0
20260504202320 63 308 0.0 0.0 0.00 0.00 0.00 72 1010.9
20260504201821 63 307 0.0 1.0 0.00 0.00 0.00 71 1010.9
20260504201324 64 308 0.0 2.0 0.00 0.00 0.00 70 1010.9
20260504200825 64 308 0.0 2.0 0.00 0.00 0.00 68 1010.9
20260504200326 64 295 0.0 1.0 0.00 0.00 0.00 68 1010.8
20260504195828 64 295 0.0 1.0 0.00 0.00 0.00 68 1010.9
20260504195330 65 295 0.0 1.0 0.00 0.00 0.00 67 1010.9
20260504194814 65 295 0.0 1.0 0.00 0.00 0.00 67 1011.0
20260504194318 65 295 0.0 1.0 0.00 0.00 0.00 67 1011.0
20260504193828 65 295 0.0 1.0 0.00 0.00 0.00 67 1011.0
20260504193331 65 295 0.0 1.0 0.00 0.00 0.00 67 1011.1
20260504192815 65 295 0.0 0.0 0.00 0.00 0.00 67 1011.0
20260504192319 65 295 0.0 0.0 0.00 0.00 0.00 66 1011.0
20260504191823 65 295 0.0 0.0 0.00 0.00 0.00 66 1011.0
20260504191327 66 295 0.0 0.0 0.00 0.00 0.00 65 1011.0
20260504190831 66 295 0.0 0.0 0.00 0.00 0.00 64 1010.9
20260504190316 67 295 0.0 0.0 0.00 0.00 0.00 64 1010.9
20260504185820 67 295 0.0 0.0 0.00 0.00 0.00 63 1010.8
20260504185321 67 295 0.0 0.0 0.00 0.00 0.00 62 1010.8
20260504184821 68 295 0.0 0.0 0.00 0.00 0.00 61 1010.8
20260504184321 68 295 0.0 0.0 0.00 0.00 0.00 61 1010.8
20260504183822 69 295 0.0 1.0 0.00 0.00 0.00 60 1010.8
20260504183323 69 295 0.0 1.0 0.00 0.00 0.00 60 1010.7
20260504182813 69 295 0.0 1.0 0.00 0.00 0.00 59 1010.7
20260504182313 70 295 0.0 1.0 0.00 0.00 0.00 58 1010.7
20260504181815 70 295 0.0 2.0 0.00 0.00 0.00 58 1010.6
20260504181315 70 295 0.0 2.0 0.00 0.00 0.00 57 1010.7
20260504180819 71 296 1.0 3.0 0.00 0.00 0.00 57 1010.7
20260504180320 71 326 1.0 3.0 0.00 0.00 0.00 56 1010.6
20260504175823 71 324 1.0 4.0 0.00 0.00 0.00 55 1010.6
20260504175326 72 335 1.0 4.0 0.00 0.00 0.00 55 1010.6